SL-8 DEB

Satellite information

Favourite Embed

Satellite Type and Status

DEBRISIN ORBIT

Key statistics

Satellite SL-8 DEB at a glance.

Uptime

13470

Days in orbit

Revolutions

≈ 14.6

Per day

Orbit

LEO

Low Earth Orbit

Inclination

74.1

Latest

Satellite identification and parameters

Extended collection of information and parameters for SL-8 DEB.

Object identification

Identified? True

Debris? True

Object name: SL-8 DEB

International designator: 1988-053C

Object number (NORAD): 19260

Object ID (CCSDS): 19260

Country: COMMONWEALTH OF INDEPENDENT STATES (CIS)

Current information (Y/N): Y

RCS size: SMALL

Orbital parameters

Period: 98.702 minutes

Inclination: 74.0613 deg

SMA: 7074.759 km

Apoapsis: 701.927 km

Periapsis: 691.321 km

RAAN: 38.1713 deg

Eccentricy: 0.0007496

Argument of periapsis: 290.3593 deg

Mean anomaly: 188.9922 deg

Mean motion: 14.58932791 rev/day

Mean motion (dot): 0.00002196 rev/day2

B* drag term: 0.00047436 1/REarth

Two-line elements (TLE)

Creation date: May 8, 2025, 3:01 a.m.

Reference frame: TEME

Reference center: EARTH

Epoch: May 7, 2025, 9:57 p.m. UTC

TLE line 0: 0 SL-8 DEB

TLE line 1: 1 19260U 88053C 25127.91507742 .00002196 00000-0 47436-3 0 9999

TLE line 2: 2 19260 74.0613 38.1713 0007496 290.3593 188.9922 14.58932791942633

Live tracking on map

Real-time ground track for satellite SL-8 DEB.

In-orbit conjunctions

A list of the most updated potential collisions computed for object SL-8 DEB.

Target Orbit TCA Probability of collision Miss distance Type
OXP 1 LEO 2024-09-21 12:09:01 0.0001886464 699.0 (m) PAYLOAD
CZ-6A DEB SSO 2024-09-06 18:12:00 0.0003214176 138.0 (m) DEBRIS
THORAD AGENA D DEB SSO 2024-08-03 20:18:58 0.0001174939 22.0 (m) DEBRIS

Associated space launch

Military communications satellite

SL-8 DEB was lifted into orbit during the mission ‘Kosmos-3M | Strela-2M 45’, on board a Kosmos-3M space rocket.

The launch took place on June 21, 1988, 4:26 p.m. from 133/3 (133L).

For more information about the launch, click the button.

Launch to space Kosmos-3M | Strela-2M 45
Kosmos-3M | Strela-2M 45

Agency: N/A

Status: Launch Successful

Launch date: June 21, 1988, 4:26 p.m. UTC

Rocket: Kosmos-3M

Launch pad: 133/3 (133L)

Location: Plesetsk Cosmodrome, Russian Federation

...

Latest news about this satellite

There are no fresh news available about this satellite. Check back as we update our databases every day.


Newsletter sign-up

Weekly statistics, charts and insights to help you stay on top of the space industry.